Regional Weather Roundup
Issued by NWS

Home | Current Version | Previous Version | Graphics & Text | Print | Product List | Glossary On
Versions: 1 2 3 4 5 6 7 8 9 10 11 12 13 14 15 16 17 18 19 20 21 22 23 24 25 26 27
000
ASUS45 KBOI 281810
RWRID

IDAHO REGIONAL WEATHER ROUNDUP
NATIONAL WEATHER SERVICE BOISE ID
1200 PM MDT SAT MAY 28 2016

NOTE: "FAIR" INDICATES FEW OR NO CLOUDS BELOW 12000 FEET
WITH NO SIGNIFICANT WEATHER AND/OR OBSTRUCTIONS TO VISIBILITY

IDZ012-014-281900-
SOUTHWEST IDAHO


CITY           SKY/WX    TMP DP  RH WIND       PRES   REMARKS
BOISE          SUNNY     60  29  30 NW9       30.09F
CALDWELL       SUNNY     61  33  35 MISG      30.10S
MOUNTAIN HOME  SUNNY     66  36  33 NW18G24   30.07F
$$

IDZ016-017-281900-
SOUTHCENTRAL IDAHO


CITY           SKY/WX    TMP DP  RH WIND       PRES   REMARKS
BURLEY         SUNNY     60  31  33 W9        30.08S
JEROME         SUNNY     59  30  33 W10G18    30.10R
TWIN FALLS     SUNNY     59  30  33 W9        30.10R
$$

IDZ019>023-281900-
SOUTHEAST IDAHO


CITY           SKY/WX    TMP DP  RH WIND       PRES   REMARKS
IDAHO FALLS    MOSUNNY   56  34  43 SW15      30.07S
POCATELLO      SUNNY     61  26  26 W17       30.09R
REXBURG        SUNNY     56  33  42 SW16G23   30.06S
$$

IDZ006-010-011-018-031-032-281900-
CENTRAL IDAHO MOUNTAINS


CITY           SKY/WX    TMP DP  RH WIND       PRES   REMARKS
MCCALL         SUNNY     50  29  44 VRB3      30.07S
STANLEY          N/A     54  21  27 N10       30.09R
SALMON         PTSUNNY   55  34  44 N7        30.01F
CHALLIS        MOSUNNY   57  24  28 MISG      30.02F
$$

IDZ002-004-006-007-026-281900-
NORTHERN IDAHO


CITY           SKY/WX    TMP DP  RH WIND       PRES   REMARKS
LEWISTON       SUNNY     62  39  42 MISG      30.07F
LOWELL           N/A     63  37  38 SE5       30.06F
COEUR D`ALENE  CLOUDY    54  36  50 CALM      30.06S
MULLAN PASS    CLOUDY    40  27  59 CALM      30.06R
$$




USA.gov is the U.S. government's official web portal to all federal, state and local government web resources and services.